Change the Weather History Date:

Tuesday, July 30, 2013

  Actual Average (KLBT) Record (KLBT)
Temperature  
Mean Temperature 76 °F 81 °F  
Max Temperature 88 °F 90 °F 101 °F (2011)
Min Temperature 66 °F 72 °F 65 °F (2014)
Degree Days  
Heating Degree Days 0 0  
Month to date heating degree days 0  
Since 1 June heating degree days 0  
Since 1 July heating degree days 0  
Cooling Degree Days 12 16  
Month to date cooling degree days 480  
Year to date cooling degree days 1118  
Since 1 June cooling degree days 868  
Growing Degree Days 26 (Base 50)    
Moisture  
Dew Point 67 °F    
Average Humidity 81    
Maximum Humidity 100    
Minimum Humidity 46    
Precipitation  
Precipitation 0.00 in 0.20 in 0.69 in (2008)
Month to date precipitation 5.28  
Year to date precipitation 24.69  
Sea Level Pressure  
Sea Level Pressure 30.17 in    
Wind  
Wind Speed 1 mph (NE)    
Max Wind Speed 8 mph    
Max Gust Speed -    
Visibility 8 miles    
Events      
T = Trace of Precipitation, MM = Missing Value Source: NWS Daily Summary

Daily Weather History Graph

Daily Weather History Graph

Search for Another Location

Airport or City:

Trip Planner

Search our weather history database for the weather conditions in past years. The results will help you decide how hot, cold, wet, or windy it might be!

Date:

Astronomy

Jul. 30, 2013 Rise Set
Actual Time 6:26 AM EDT 8:21 PM EDT
Civil Twilight 5:58 AM EDT 8:49 PM EDT
Nautical Twilight 5:24 AM EDT 9:22 PM EDT
Astronomical Twilight 4:48 AM EDT 9:58 PM EDT
Moon 12:40 AM EDT (7/30) 2:40 PM EDT (7/30)
Length of Visible Light 14h 50m
Length of Day
13h 55m
Last Quarter, 41% of the Moon is Illuminated
Jul 30
Last Quarter
Aug 6
New
Aug 14
First Quarter
Aug 20
Full
Aug 28
Last Quarter

Hourly Weather History & Observations

Time (EDT) Temp. Heat Index Dew Point Humidity Pressure Visibility Wind Dir Wind Speed Gust Speed Precip Events Conditions
12:09 AM 71.6 °F - 69.8 °F 94% 30.17 in 9.0 mi Calm Calm - N/A   Mostly Cloudy
12:17 AM 71.6 °F - 69.8 °F 94% 30.17 in 9.0 mi Calm Calm - N/A   Overcast
12:52 AM 70.0 °F - 69.1 °F 97% 30.17 in 9.0 mi NE 3.5 mph - N/A   Overcast
1:52 AM 70.0 °F - 69.1 °F 97% 30.16 in 5.0 mi Calm Calm - N/A   Clear
2:52 AM 69.1 °F - 69.1 °F 100% 30.16 in 5.0 mi Calm Calm - N/A   Clear
3:31 AM 69.8 °F - 68.0 °F 94% 30.16 in 2.0 mi Calm Calm - N/A   Clear
3:41 AM 69.8 °F - 68.0 °F 94% 30.16 in 6.0 mi Calm Calm - N/A   Clear
3:52 AM 68.0 °F - 68.0 °F 100% 30.15 in 3.0 mi Calm Calm - N/A   Clear
4:31 AM 68.0 °F - 68.0 °F 100% 30.16 in 1.8 mi Calm Calm - N/A   Clear
4:38 AM 68.0 °F - 68.0 °F 100% 30.16 in 3.0 mi Calm Calm - N/A   Clear
4:43 AM 68.0 °F - 68.0 °F 100% 30.16 in 1.8 mi Calm Calm - N/A   Partly Cloudy
4:52 AM 68.0 °F - 66.9 °F 96% 30.16 in 2.0 mi Calm Calm - N/A   Mostly Cloudy
5:00 AM 66.2 °F - 66.2 °F 100% 30.17 in 7.0 mi Calm Calm - N/A   Mostly Cloudy
5:52 AM 66.9 °F - 66.9 °F 100% 30.17 in 4.0 mi Calm Calm - N/A   Clear
6:01 AM 66.2 °F - 66.2 °F 100% 30.17 in 5.0 mi Calm Calm - N/A   Scattered Clouds
6:52 AM 68.0 °F - 66.9 °F 96% 30.18 in 7.0 mi NNE 3.5 mph - N/A   Mostly Cloudy
7:52 AM 70.0 °F - 68.0 °F 93% 30.21 in 9.0 mi NNE 5.8 mph - N/A   Clear
8:52 AM 73.9 °F - 66.0 °F 76% 30.21 in 10.0 mi NE 8.1 mph - N/A   Partly Cloudy
9:52 AM 79.0 °F - 64.9 °F 62% 30.21 in 10.0 mi ENE 8.1 mph - N/A   Clear
10:52 AM 81.0 °F 82.5 °F 64.0 °F 56% 30.21 in 10.0 mi ENE 6.9 mph - N/A   Clear
11:52 AM 82.9 °F 84.4 °F 64.0 °F 53% 30.20 in 10.0 mi East 5.8 mph - N/A   Clear
12:52 PM 84.0 °F 85.8 °F 64.9 °F 53% 30.19 in 10.0 mi NE 3.5 mph - N/A   Clear
1:52 PM 84.9 °F 86.6 °F 64.9 °F 51% 30.17 in 10.0 mi East 6.9 mph - N/A   Clear
2:52 PM 86.0 °F 87.3 °F 64.0 °F 48% 30.15 in 10.0 mi Variable 3.5 mph - N/A   Clear
3:52 PM 84.9 °F 85.9 °F 63.0 °F 48% 30.15 in 10.0 mi Calm Calm - N/A   Partly Cloudy
4:52 PM 86.0 °F 86.8 °F 63.0 °F 46% 30.14 in 10.0 mi Calm Calm - N/A   Clear
5:52 PM 87.1 °F 88.9 °F 64.9 °F 48% 30.14 in 10.0 mi Calm Calm - N/A   Partly Cloudy
6:52 PM 84.9 °F 86.1 °F 64.0 °F 49% 30.14 in 10.0 mi Calm Calm - N/A   Mostly Cloudy
7:52 PM 82.0 °F 85.9 °F 70.0 °F 67% 30.13 in 10.0 mi Calm Calm - N/A   Clear
8:52 PM 77.0 °F - 71.1 °F 82% 30.13 in 10.0 mi Calm Calm - N/A   Clear
9:52 PM 73.9 °F - 72.0 °F 93% 30.15 in 10.0 mi Calm Calm - N/A   Clear
10:52 PM 75.0 °F - 70.0 °F 84% 30.15 in 10.0 mi North 3.5 mph - N/A   Scattered Clouds
11:52 PM 73.9 °F - 71.1 °F 91% 30.15 in 9.0 mi ENE 4.6 mph - N/A   Partly Cloudy